Location: Multiple Mirror Telescope
(31.6889°N, 110.8853°W)
Time: 09:24:32
(UTC-07:00)

Hubble Space Telescope - Pass Details

Date: 01 June 2024
Orbit: 511 x 515 km, 28.5° (Epoch: 14 June)

Event Time Altitude Azimuth Distance (km) Brightness Sun altitude
Rises 20:24:14 0° 268° (W) 2,613 5.2 -11.7°
Reaches altitude 10° 20:26:31 10° 262° (W) 1,726 4.0 -12.1°
Maximum altitude 20:30:21 45° 188° (S) 698 1.1 -12.7°
Enters shadow 20:32:34 22° 126° (SE) 1,154 1.8 -13.1°
